Wind_Speed
27 27 28 28 29 29 30 30 29 29 29 29 29 29 30 29 29 30 30 30 30 29 29 29 29 30 30 29 30 30 30 30 30 30 30 30 30 30
28 29 29 29 29 29 29 29 30 30 30 30 30 30 31 31 31 31 31 31 31 30 30 30 29 29 29 29 29 30 30 29 29 28 29 29 30 29
30 30 30 30 30 31 31 31 31 31 30 30 31 31 31 31 31 31 31 30 30 30 30 30 29 29 29 29 29 29 28 27 27 27 28 28 28 27
30 31 31 31 31 31 31 31 31 31 31 31 31 31 31 31 31 30 30 31 30 30 29 29 28 28 27 28 28 27 26 26 26 26 27 26 26 26
30 31 31 32 32 32 31 32 32 32 31 31 31 31 31 31 31 31 30 30 30 29 28 28 27 27 26 26 26 25 24 25 25 25 25 25 25 24
30 31 31 31 32 33 33 33 32 32 32 31 30 30 30 30 30 30 30 30 28 27 26 25 25 24 24 24 24 23 24 24 24 23 24 24 24 24
29 30 29 30 31 32 32 32 32 32 31 31 30 30 30 30 29 28 28 28 27 26 25 24 24 24 24 23 23 23 23 23 23 23 23 23 22 22
27 28 29 29 29 29 30 31 31 31 31 31 30 30 29 29 27 27 26 26 26 25 24 24 23 23 23 23 23 23 22 21 21 22 22 21 21 21
26 26 27 27 27 28 28 29 29 29 30 29 29 29 28 27 26 25 25 24 24 23 23 22 22 22 22 21 21 21 21 21 21 21 20 19 19 19
24 25 26 26 26 27 26 27 27 27 27 27 27 27 27 26 25 24 23 23 23 22 22 21 21 20 20 19 19 19 20 19 19 18 18 18 17 17
23 23 24 24 24 24 25 25 25 25 25 25 25 25 25 24 23 23 22 21 20 20 20 19 19 18 18 18 18 18 18 17 17 16 16 16 16 16
20 20 20 21 21 21 21 22 22 22 23 23 22 22 22 21 21 20 20 19 18 18 18 18 18 17 16 17 17 17 16 15 14 14 14 14 15 15
16 16 16 16 17 17 18 18 18 19 19 20 20 20 20 20 19 18 17 16 16 16 15 15 15 15 16 15 15 14 13 13 13 13 14 15 15 16
13 13 13 13 13 13 14 14 14 15 15 16 16 17 17 17 17 16 16 16 15 15 14 14 14 14 13 13 12 12 12 12 13 14 15 15 16 16
11 10 10 10 9 9 10 11 11 11 12 13 14 14 15 16 16 15 15 14 14 14 13 13 13 12 11 11 11 11 11 12 13 13 14 14 14 15
7 6 6 6 6 7 8 8 9 10 11 11 12 13 14 14 15 15 14 14 13 12 12 11 11 10 9 9 9 10 10 11 12 13 13 13 14 15
3 2 2 3 3 4 5 6 7 8 8 9 11 11 12 13 13 13 13 12 11 10 9 9 9 9 9 9 9 10 11 11 12 12 13 13 15 17
3 1 0 1 1 2 2 4 5 5 7 8 9 9 10 11 12 12 11 10 10 10 9 9 9 9 9 9 10 10 10 11 12 13 13 15 16 18
3 2 2 1 1 1 1 2 3 4 5 7 7 7 8 10 10 10 9 9 9 9 8 8 8 9 9 9 10 10 11 12 13 14 15 16 18 19
4 3 3 2 2 2 2 2 3 3 4 5 6 7 8 8 9 10 9 9 8 8 8 8 8 9 9 9 10 11 12 12 13 15 17 18 19 21
5 4 3 3 3 2 2 2 2 3 4 5 5 6 6 7 8 8 8 8 8 8 8 8 9 9 9 10 10 11 12 14 15 17 19 20 21 23
4 4 4 3 2 2 2 2 2 2 3 4 5 5 6 6 7 7 8 8 8 8 8 9 9 9 10 10 11 13 14 16 18 19 21 22 24 25
4 4 3 3 3 3 1 1 1 2 3 4 5 5 6 6 6 7 7 7 8 9 9 10 10 10 11 12 14 15 17 18 20 22 23 25 27 28
Wind_Direction
257 256 255 254 254 254 255 254 254 254 255 257 257 258 259 260 261 261 262 263 265 267 267 269 269 270 270 270 271 272 273 275 275 277 279 280 280 281
260 259 257 256 255 255 255 255 254 255 255 257 259 260 261 260 261 262 262 263 264 266 268 269 270 270 270 270 271 272 273 274 275 278 279 280 281 280
259 259 258 257 257 256 256 256 255 254 255 257 259 261 262 262 261 262 263 263 264 266 268 269 270 269 270 270 272 273 274 274 276 279 279 281 279 280
260 259 259 258 256 256 256 256 256 256 255 255 257 259 261 262 262 262 263 264 265 267 268 270 270 269 271 271 273 276 277 277 278 279 281 281 281 281
260 260 260 258 257 257 256 256 256 256 256 256 258 259 260 261 262 263 264 265 265 266 267 268 269 270 270 271 274 277 278 278 279 280 281 282 282 283
263 263 262 259 258 257 257 257 257 257 256 257 258 259 259 260 261 262 262 262 264 264 264 266 267 269 269 272 274 276 277 278 280 281 283 283 283 284
265 264 263 261 261 260 259 258 257 257 257 257 257 257 259 261 261 261 261 260 261 262 263 266 267 266 266 269 273 273 275 278 279 281 282 283 284 285
267 267 265 263 262 261 260 259 258 258 258 258 257 258 258 258 259 259 261 261 259 259 261 262 263 264 266 267 270 271 274 277 280 281 282 283 284 284
269 268 268 266 265 264 262 259 259 259 258 258 257 256 255 256 257 257 257 257 255 256 258 260 261 264 266 267 269 271 274 278 280 280 281 281 283 284
271 269 268 267 266 264 262 259 258 257 256 255 255 254 252 253 254 254 254 253 254 255 256 259 260 262 265 267 269 272 274 275 277 279 280 281 283 285
273 272 269 267 266 262 260 258 256 254 253 253 253 252 250 250 250 251 251 251 251 253 255 257 259 261 263 266 270 273 275 277 278 279 281 283 286 289
275 273 270 267 264 261 259 256 254 254 252 251 251 250 248 246 246 247 248 247 250 253 256 257 260 262 265 267 272 274 276 278 280 282 284 288 290 293
279 275 272 267 262 259 256 254 253 252 251 249 246 245 242 239 240 242 242 244 248 250 252 255 258 262 265 267 269 273 274 277 281 284 287 290 292 296
279 276 272 268 263 258 254 250 247 247 245 242 240 238 236 234 234 235 238 242 244 247 250 254 258 262 263 266 271 274 276 278 281 284 289 292 294 297
282 274 268 264 254 249 248 245 239 235 233 232 231 231 231 230 230 230 233 238 242 245 247 251 257 260 264 268 272 273 276 279 284 288 293 295 298 299
289 275 262 251 242 239 238 237 234 229 228 227 225 225 226 225 226 228 232 236 239 240 242 247 251 256 262 267 272 276 280 285 290 293 297 298 300 302
312 280 245 231 234 228 230 230 225 219 219 220 220 220 223 223 223 224 225 227 229 230 234 243 250 259 265 269 273 279 285 289 291 296 299 301 303 304
20 29 246 232 217 211 219 220 217 214 212 212 211 215 218 217 217 217 217 219 222 228 236 245 254 261 266 271 279 284 288 290 295 299 302 304 306 307
43 62 64 69 98 145 192 193 191 197 204 199 199 202 204 205 207 209 215 217 222 230 238 246 255 261 268 276 283 285 288 293 298 301 305 307 308 309
42 50 59 61 71 76 99 144 158 158 173 184 189 191 194 202 207 212 216 218 223 231 241 249 258 266 273 278 281 286 291 296 301 305 307 308 309 310
37 47 64 66 70 79 95 126 151 165 175 183 183 180 183 191 199 206 214 221 231 242 253 261 268 273 277 281 286 291 295 299 303 306 308 309 310 311
39 48 58 58 56 71 91 114 136 160 182 188 186 186 189 196 205 212 220 231 241 252 261 269 274 278 281 286 291 295 298 300 304 307 309 309 309 310
37 40 42 38 40 44 79 134 157 173 185 198 198 201 205 211 217 222 230 242 252 260 267 272 278 283 285 289 293 296 298 300 303 305 307 308 309 310
Height
5777 5779 5780 5781 5782 5784 5785 5786 5788 5789 5791 5791 5792 5793 5794 5795 5796 5797 5797 5798 5798 5799 5799 5799 5799 5799 5799 5799 5799 5799 5798 5798 5797 5797 5796 5795 5794 5793
5770 5771 5772 5773 5774 5776 5777 5778 5780 5782 5783 5784 5785 5786 5787 5787 5788 5789 5790 5790 5791 5792 5792 5792 5792 5792 5792 5792 5792 5792 5791 5791 5790 5790 5789 5788 5787 5786
5762 5763 5764 5765 5766 5768 5769 5771 5772 5774 5775 5776 5777 5778 5779 5779 5780 5781 5782 5783 5783 5784 5784 5784 5784 5785 5785 5784 5784 5784 5784 5783 5783 5783 5782 5781 5780 5779
5754 5755 5756 5757 5758 5759 5761 5762 5764 5765 5767 5768 5769 5770 5771 5771 5772 5773 5774 5774 5775 5776 5777 5777 5777 5777 5777 5778 5777 5777 5777 5777 5776 5776 5775 5775 5774 5772
5746 5746 5747 5748 5749 5751 5752 5753 5755 5757 5758 5760 5761 5762 5763 5764 5764 5765 5766 5767 5768 5768 5769 5769 5770 5770 5770 5771 5771 5771 5771 5770 5770 5770 5769 5768 5767 5766
5738 5738 5738 5739 5740 5741 5743 5744 5746 5748 5750 5751 5753 5754 5755 5756 5757 5758 5758 5759 5760 5761 5762 5762 5763 5764 5764 5764 5764 5764 5765 5764 5764 5763 5762 5762 5761 5760
5729 5730 5730 5730 5731 5732 5734 5736 5737 5739 5741 5743 5745 5746 5747 5748 5749 5750 5751 5752 5753 5754 5755 5756 5757 5758 5758 5758 5758 5758 5759 5758 5758 5757 5757 5756 5755 5754
5721 5721 5722 5722 5723 5724 5725 5727 5729 5731 5732 5734 5736 5738 5739 5741 5742 5743 5744 5745 5747 5748 5749 5750 5751 5751 5752 5752 5753 5753 5753 5752 5752 5751 5751 5750 5749 5748
5713 5714 5714 5714 5715 5716 5717 5718 5720 5722 5724 5726 5728 5730 5732 5733 5735 5736 5738 5739 5740 5741 5742 5743 5745 5745 5746 5746 5747 5747 5747 5747 5746 5746 5745 5745 5744 5743
5706 5706 5706 5707 5707 5708 5709 5711 5712 5714 5716 5718 5720 5722 5724 5726 5728 5730 5731 5732 5734 5735 5737 5738 5739 5740 5741 5741 5741 5741 5741 5741 5741 5740 5740 5739 5738 5737
5699 5699 5699 5700 5700 5701 5702 5703 5705 5706 5708 5710 5713 5715 5717 5719 5721 5723 5725 5727 5729 5730 5731 5733 5734 5735 5736 5736 5736 5736 5736 5736 5736 5735 5735 5734 5734 5733
5693 5693 5693 5693 5693 5694 5695 5696 5698 5700 5702 5704 5706 5709 5711 5714 5716 5718 5720 5722 5724 5726 5727 5728 5729 5730 5731 5731 5731 5731 5732 5732 5731 5731 5731 5730 5729 5728
5688 5688 5687 5687 5688 5688 5689 5691 5692 5694 5696 5698 5701 5703 5706 5709 5711 5714 5716 5718 5720 5721 5723 5724 5725 5726 5726 5727 5727 5727 5727 5727 5727 5727 5726 5725 5724 5723
5684 5683 5683 5683 5683 5684 5685 5686 5688 5690 5692 5694 5696 5699 5702 5705 5707 5710 5712 5714 5716 5717 5718 5720 5721 5721 5722 5722 5723 5723 5723 5723 5723 5723 5722 5721 5720 5718
5680 5680 5680 5680 5680 5681 5682 5683 5685 5686 5688 5690 5693 5695 5698 5701 5703 5706 5708 5710 5712 5713 5715 5716 5717 5718 5719 5719 5719 5720 5720 5720 5719 5718 5718 5716 5715 5714
5678 5678 5678 5678 5679 5679 5680 5681 5682 5684 5686 5688 5690 5693 5695 5698 5700 5703 5705 5707 5709 5710 5712 5713 5714 5715 5715 5716 5716 5716 5716 5716 5715 5714 5713 5712 5711 5709
5678 5677 5677 5678 5678 5678 5679 5680 5681 5682 5684 5686 5688 5690 5693 5695 5697 5700 5702 5704 5706 5707 5709 5710 5711 5712 5712 5712 5713 5712 5712 5712 5711 5710 5709 5708 5706 5704
5678 5678 5678 5678 5678 5678 5679 5679 5680 5682 5683 5685 5686 5688 5690 5693 5695 5698 5700 5702 5704 5705 5706 5708 5708 5709 5709 5709 5709 5709 5708 5708 5707 5706 5704 5703 5701 5699
5679 5679 5679 5679 5679 5679 5679 5679 5680 5681 5682 5684 5685 5687 5689 5691 5694 5696 5698 5700 5702 5703 5704 5705 5706 5706 5706 5706 5706 5705 5705 5704 5703 5701 5700 5698 5696 5694
5681 5681 5680 5680 5680 5680 5680 5680 5681 5681 5682 5684 5685 5687 5688 5690 5693 5695 5697 5698 5700 5701 5702 5703 5703 5703 5703 5703 5702 5702 5700 5699 5698 5697 5695 5693 5691 5688
5683 5682 5682 5681 5681 5681 5681 5681 5682 5682 5683 5684 5685 5687 5688 5690 5691 5693 5695 5697 5698 5699 5699 5700 5700 5700 5699 5699 5699 5698 5697 5695 5694 5692 5690 5687 5685 5682
5685 5684 5683 5683 5683 5682 5682 5682 5683 5683 5684 5684 5685 5687 5688 5689 5691 5692 5693 5695 5696 5696 5696 5697 5696 5696 5696 5695 5695 5694 5693 5691 5689 5686 5684 5681 5678 5675
5686 5685 5685 5684 5684 5683 5683 5683 5684 5684 5684 5685 5685 5686 5687 5688 5689 5690 5692 5692 5693 5693 5693 5693 5693 5692 5692 5691 5690 5689 5687 5685 5683 5681 5678 5674 5671 5667